Location: Unspecified
(41.1637°N, 24.2901°E)
Time: 17:06:47
(UTC+01:00)

Hubble Space Telescope - Visible Passes

Search period start: 20 January 2026 00:00
Search period end: 30 January 2026 00:00
Orbit: 479 x 481 km, 28.5° (Epoch: 20 January)

Date Brightness Start Highest point End Pass type
(mag) Time Alt. Az. Time Alt. Az. Time Alt. Az.
26 Jan 3.1 18:33:24 10° SSW 18:34:48 12° S 18:34:48 12° S visible
27 Jan 3.1 18:03:29 10° SSW 18:04:57 12° S 18:06:26 10° SSE visible
28 Jan 3.1 17:33:32 10° SSW 17:35:01 12° S 17:36:30 10° SSE visible
29 Jan 3.2 17:03:35 10° SSW 17:05:03 12° S 17:06:32 10° SSE visible
